CW5404 Weather Reports


time (UTC)temp
C
wind
direction
speed
KPH
gust
KPH
rain 1hr
cm
rain 24hr
cm
rain mn
cm
humidity
%
barometer
mb
20260904023951 13 205 8.0 14.5 0.03 0.89 0.71 94 1008.4
20260904023451 13 150 3.2 14.5 0.03 0.89 0.71 93 1008.4
20260904022451 13 188 3.2 11.3 0.00 0.86 0.69 92 1008.4
20260904021952 13 187 3.2 11.3 0.00 0.86 0.69 92 1008.4
20260904021451 13 185 4.8 12.9 0.00 0.86 0.69 92 1008.4
20260904020451 13 163 4.8 12.9 0.00 0.86 0.69 92 1008.4
20260904015950 13 173 4.8 12.9 0.00 0.86 0.69 92 1008.4
20260904015451 13 225 6.4 12.9 0.00 0.86 0.69 92 1008.3
20260904014950 13 178 1.6 12.9 0.00 0.86 0.69 92 1008.3
20260904014450 13 184 3.2 12.9 0.00 0.86 0.69 92 1008.3
20260904013951 13 128 4.8 12.9 0.00 0.86 0.69 93 1008.2
20260904012951 13 142 3.2 11.3 0.00 0.86 0.69 92 1008.2
20260904012451 13 188 6.4 16.1 0.00 0.86 0.69 92 1008.2
20260904011950 13 162 6.4 19.3 0.00 0.86 0.69 91 1008.2
20260904011450 13 192 14.5 19.3 0.00 0.86 0.69 89 1008.2
20260904010950 13 180 6.4 19.3 0.00 0.86 0.69 88 1008.4
20260904010450 14 136 1.6 19.3 0.00 0.86 0.69 88 1008.4
20260904005450 14 189 14.5 14.5 0.00 0.86 0.69 89 1008.3
20260904004450 14 186 0.0 9.7 0.00 0.86 0.69 89 1008.3
20260904003950 14 139 1.6 9.7 0.00 0.86 0.69 89 1008.3
20260904003450 15 171 0.0 12.9 0.00 0.86 0.69 89 1008.4
20260904002449 15 360 4.8 12.9 0.00 0.86 0.69 87 1008.5
20260904001949 15 360 3.2 12.9 0.00 0.86 0.69 87 1008.5
20260904000950 15 360 4.8 11.3 0.00 0.89 0.69 87 1008.6
20260904000450 15 360 8.0 8.0 0.00 0.91 0.69 88 1008.6
20260903235449 15 168 0.0 9.7 0.00 0.91 0.69 86 1008.6
20260903234949 15 169 3.2 9.7 0.00 0.91 0.69 86 1008.6
20260903234449 15 172 3.2 9.7 0.00 0.91 0.69 85 1008.5
20260903233949 15 175 1.6 6.4 0.00 0.91 0.69 85 1008.5
20260903233449 15 174 0.0 6.4 0.00 0.91 0.69 85 1008.5
20260903232949 15 169 0.0 6.4 0.00 0.91 0.69 85 1008.6
20260903232449 15 159 4.8 6.4 0.00 0.91 0.69 85 1008.8
20260903231949 15 360 3.2 11.3 0.00 0.91 0.69 83 1008.7
20260903231450 15 360 3.2 12.9 0.00 0.91 0.69 82 1008.7
20260903230949 15 360 1.6 12.9 0.03 0.91 0.69 82 1008.5
20260903224949 15 360 4.8 9.7 0.03 0.91 0.69 86 1008.7
20260903224449 15 360 4.8 9.7 0.03 0.91 0.69 86 1008.6
20260903222948 14 360 8.0 8.0 0.03 0.91 0.69 89 1008.8
20260903222448 14 360 1.6 8.0 0.03 0.91 0.69 91 1008.8
20260903221948 14 360 1.6 9.7 0.03 0.91 0.69 91 1008.8
20260903221448 13 360 1.6 9.7 0.03 0.91 0.69 90 1008.8
20260903220948 13 360 0.0 9.7 0.00 0.91 0.66 90 1009.1
20260903220448 13 360 3.2 11.3 0.00 0.91 0.66 90 1009.1
20260903215948 13 360 1.6 12.9 0.00 0.94 0.66 90 1009.1
20260903215448 13 360 8.0 12.9 0.03 0.99 0.66 91 1009.1
20260903214948 13 360 0.0 9.7 0.03 1.02 0.66 91 1009.1
20260903214448 13 360 8.0 9.7 0.03 1.02 0.66 92 1009.1
20260903213948 13 360 0.0 8.0 0.03 1.04 0.66 92 1009.2
20260903213448 13 360 6.4 11.3 0.03 1.07 0.66 92 1009.2
20260903212948 13 360 1.6 11.3 0.03 1.07 0.66 92 1009.2
20260903212448 13 360 1.6 8.0 0.03 1.07 0.66 92 1009.0
20260903211948 13 221 3.2 4.8 0.05 1.07 0.66 93 1009.0
20260903211448 13 236 1.6 4.8 0.05 1.07 0.66 92 1009.0
20260903210948 12 215 3.2 8.0 0.05 1.12 0.66 92 1008.9
20260903210448 12 229 0.0 11.3 0.08 1.12 0.66 92 1008.9
20260903205948 12 261 0.0 11.3 0.10 1.12 0.66 91 1008.9
20260903204947 13 360 6.4 11.3 0.13 1.12 0.64 93 1009.2
20260903204447 13 360 3.2 9.7 0.15 1.14 0.64 93 1009.2
20260903203947 13 204 1.6 9.7 0.18 1.14 0.64 93 1009.1
20260903203448 13 188 3.2 8.0 0.18 1.17 0.64 94 1009.1
20260903202948 13 223 0.0 6.4 0.18 1.19 0.64 94 1009.1
20260903202447 13 230 1.6 6.4 0.20 1.22 0.64 94 1009.2
20260903201947 13 215 1.6 8.0 0.18 1.22 0.61 93 1009.2
20260903201448 13 240 4.8 8.0 0.20 1.22 0.61 93 1009.2
20260903195947 13 153 1.6 16.1 0.18 1.22 0.56 91 1009.3
20260903195448 13 266 0.0 11.3 0.13 1.17 0.51 91 1009.3
20260903194948 13 258 1.6 12.9 0.13 1.19 0.51 91 1009.3
20260903194447 13 201 8.0 12.9 0.10 1.17 0.48 92 1009.3
20260903193947 13 210 0.0 11.3 0.08 1.17 0.46 91 1009.2
20260903193447 14 186 8.0 8.0 0.08 1.17 0.46 92 1009.2
20260903192947 14 202 1.6 8.0 0.08 1.19 0.46 92 1009.2
20260903192447 14 201 4.8 6.4 0.05 1.19 0.43 91 1009.3
20260903191947 14 186 1.6 4.8 0.05 1.19 0.43 91 1009.3
20260903191447 14 262 1.6 6.4 0.03 1.19 0.41 90 1009.3
20260903190947 14 178 0.0 6.4 0.03 1.24 0.41 88 1009.3
20260903190447 14 360 0.0 4.8 0.00 1.27 0.38 86 1009.3
20260903185947 15 360 0.0 9.7 0.00 1.30 0.38 87 1009.3
20260903185447 15 360 0.0 14.5 0.00 1.32 0.38 88 1009.4
20260903184947 15 360 8.0 14.5 0.00 1.32 0.38 88 1009.4
20260903184447 15 360 1.6 16.1 0.00 1.35 0.38 89 1009.4
20260903183947 15 360 14.5 20.9 0.00 1.35 0.38 90 1009.1
20260903183447 14 360 4.8 20.9 0.00 1.40 0.38 90 1009.0
20260903182947 14 360 4.8 19.3 0.00 1.42 0.38 90 1009.0
20260903182447 14 360 17.7 17.7 0.00 1.45 0.38 92 1009.1
20260903181446 14 360 8.0 14.5 0.00 1.47 0.38 92 1009.1
20260903180946 14 360 4.8 14.5 0.00 1.50 0.38 92 1009.0
20260903180446 14 360 4.8 17.7 0.00 1.52 0.38 92 1009.0
20260903175946 14 360 8.0 17.7 0.00 1.55 0.38 93 1009.0
20260903175446 14 360 4.8 16.1 0.00 1.60 0.38 93 1009.1
20260903174446 14 360 4.8 16.1 0.00 1.70 0.38 94 1009.1
20260903173946 14 360 8.0 16.1 0.00 1.75 0.38 95 1009.0
20260903172946 13 360 6.4 14.5 0.00 1.80 0.38 95 1008.9
20260903172446 13 360 14.5 14.5 0.00 1.83 0.38 95 1009.1
20260903171946 13 360 4.8 16.1 0.00 1.83 0.38 95 1009.1
20260903170946 13 360 11.3 17.7 0.00 1.83 0.38 95 1009.0
20260903170446 13 360 6.4 17.7 0.00 1.85 0.38 95 1009.0
20260903164946 13 360 3.2 11.3 0.00 1.91 0.38 95 1009.2
20260903164446 13 360 6.4 12.9 0.00 1.91 0.38 95 1009.2
20260903163945 13 360 8.0 12.9 0.00 1.93 0.38 96 1009.2
20260903162946 13 144 3.2 9.7 0.00 1.96 0.38 95 1009.2
20260903161945 13 190 3.2 12.9 0.00 1.98 0.38 95 1009.3
20260903161445 13 360 4.8 8.0 0.00 2.01 0.38 96 1009.3
20260903160945 13 360 1.6 11.3 0.00 2.01 0.38 95 1009.4
20260903160445 13 360 1.6 14.5 0.00 2.03 0.38 96 1009.4
20260903155945 13 360 3.2 14.5 0.00 2.03 0.38 96 1009.4
20260903155445 13 360 9.7 12.9 0.00 2.03 0.38 96 1009.3
20260903154945 13 360 8.0 12.9 0.00 2.03 0.38 98 1009.3
20260903154445 13 360 8.0 16.1 0.00 2.03 0.38 99 1009.2
20260903153945 13 360 4.8 16.1 0.00 2.03 0.38 100 1009.3
20260903151945 12 360 4.8 12.9 0.00 2.03 0.38 100 1009.3
20260903150445 12 360 8.0 8.0 0.00 2.03 0.38 100 1009.2
20260903145945 13 360 8.0 9.7 0.00 2.03 0.38 100 1009.2
20260903145444 12 360 4.8 9.7 0.03 2.03 0.38 100 1009.3
20260903144944 12 360 3.2 8.0 0.03 2.03 0.38 100 1009.3
20260903143945 12 223 0.0 0.0 0.05 2.03 0.38 100 1009.1
20260903143445 12 214 0.0 0.0 0.05 2.03 0.38 100 1009.1
20260903142944 12 214 0.0 11.3 0.08 2.03 0.38 100 1009.1
20260903142444 12 214 0.0 11.3 0.08 2.03 0.38 100 1009.3
20260903141944 12 203 6.4 11.3 0.08 2.03 0.38 100 1009.3
20260903140944 12 175 4.8 11.3 0.08 2.03 0.38 100 1009.0
20260903135944 12 166 1.6 11.3 0.08 2.03 0.38 100 1009.0
20260903134444 12 202 4.8 9.7 0.20 2.01 0.36 100 1008.8
20260903133944 12 197 4.8 11.3 0.20 1.98 0.33 100 1008.8
20260903133444 12 184 8.0 12.9 0.23 1.98 0.33 100 1008.8
20260903132944 12 177 6.4 12.9 0.23 1.96 0.30 100 1008.8
20260903131943 12 203 6.4 11.3 0.25 1.96 0.30 100 1008.7
20260903131443 12 175 4.8 9.7 0.28 1.96 0.30 100 1008.7
20260903130943 12 179 3.2 8.0 0.30 1.96 0.30 100 1008.9
20260903130443 12 219 6.4 8.0 0.30 1.96 0.30 100 1008.9
20260903125944 12 184 0.0 8.0 0.30 1.96 0.30 100 1008.9
20260903125444 12 178 1.6 6.4 0.25 1.91 0.25 100 1008.9
20260903124443 12 213 1.6 3.2 0.15 1.80 0.15 100 1008.9
20260903123944 12 214 0.0 1.6 0.13 1.78 0.13 100 1009.0
20260903123443 12 214 0.0 0.0 0.10 1.75 0.10 100 1009.0
20260903122944 12 214 0.0 1.6 0.08 1.73 0.08 100 1009.0
20260903122443 12 214 0.0 1.6 0.08 1.73 0.08 100 1009.0
20260903121943 12 214 0.0 3.2 0.05 1.70 0.05 100 1009.0
20260903121443 12 214 1.6 4.8 0.03 1.68 0.03 100 1009.0
20260903120943 12 212 3.2 8.0 0.00 1.65 0.00 100 1009.0
20260903120513 12 219 1.6 11.3 0.00 1.65 0.00 100 1009.0
20260903120013 12 209 6.4 11.3 0.00 1.65 0.00 100 1009.0
20260903115513 12 234 4.8 9.7 0.00 1.65 0.00 100 1008.9
20260903114443 12 201 4.8 11.3 0.00 1.65 0.00 100 1008.9
20260903113942 12 278 3.2 11.3 0.00 1.65 0.00 100 1008.9
20260903113442 12 201 4.8 9.7 0.00 1.65 0.00 100 1008.9
20260903112942 12 212 3.2 9.7 0.00 1.65 0.00 100 1008.9
20260903112443 12 194 3.2 9.7 0.00 1.65 0.00 100 1008.9
20260903111512 12 195 4.8 9.7 0.00 1.65 0.00 100 1008.8
20260903110942 12 216 4.8 8.0 0.00 1.65 0.00 100 1008.8
20260903110442 12 225 6.4 9.7 0.00 1.65 0.00 100 1008.8
20260903105942 12 208 1.6 11.3 0.00 1.65 0.00 100 1008.8
20260903104942 12 201 3.2 11.3 0.00 1.65 0.00 100 1008.9
20260903103441 12 217 4.8 11.3 0.00 1.65 0.00 100 1009.0
20260903102941 12 202 4.8 9.7 0.00 1.65 0.00 100 1009.0
20260903102442 12 212 3.2 6.4 0.00 1.65 0.00 100 1008.9
20260903101941 12 223 0.0 4.8 0.00 1.65 0.00 100 1008.9
20260903101441 12 223 0.0 4.8 0.00 1.65 0.00 100 1008.9
20260903100941 12 222 1.6 6.4 0.00 1.65 0.00 100 1009.0
20260903100442 12 214 1.6 6.4 0.00 1.65 0.00 100 1009.0
20260903095941 12 219 0.0 4.8 0.00 1.65 0.00 99 1009.0
20260903094441 12 207 3.2 11.3 0.00 1.65 0.00 99 1009.1
20260903092941 12 202 1.6 11.3 0.00 1.65 0.00 99 1009.0
20260903092441 12 173 4.8 14.5 0.00 1.65 0.00 99 1009.0
20260903091441 12 209 6.4 11.3 0.00 1.65 0.00 98 1009.0
20260903090941 12 192 4.8 11.3 0.00 1.65 0.00 98 1009.1
20260903090440 12 222 8.0 11.3 0.00 1.65 0.00 98 1009.1
20260903085941 12 198 4.8 12.9 0.00 1.65 0.00 100 1009.1
20260903085441 12 188 3.2 14.5 0.00 1.65 0.00 98 1009.1
20260903084940 12 211 3.2 14.5 0.00 1.65 0.00 98 1009.1
20260903084441 12 190 3.2 11.3 0.00 1.65 0.00 98 1009.1
20260903083940 12 184 6.4 11.3 0.00 1.65 0.00 98 1009.3
20260903082940 12 197 4.8 12.9 0.00 1.65 0.00 98 1009.3
20260903082441 12 162 3.2 12.9 0.00 1.65 0.00 98 1009.3
20260903081941 12 178 1.6 11.3 0.00 1.65 0.00 98 1009.3
20260903081440 12 172 3.2 11.3 0.00 1.65 0.00 98 1009.3
20260903080940 12 199 6.4 11.3 0.00 1.65 0.00 98 1009.3
20260903080440 12 171 4.8 11.3 0.00 1.65 0.00 98 1009.3
20260903080010 12 136 8.0 11.3 0.00 1.65 0.00 98 1009.3
20260903075440 12 169 4.8 11.3 0.00 1.65 0.00 98 1009.3
20260903074940 12 202 4.8 12.9 0.00 1.65 0.00 98 1009.3
20260903073940 12 230 4.8 12.9 0.00 1.65 0.00 99 1009.3
20260903073440 12 221 11.3 12.9 0.00 1.65 0.00 100 1009.3
20260903072440 12 222 11.3 14.5 0.00 1.65 0.00 100 1009.3
20260903072010 13 189 6.4 14.5 0.00 1.65 0.00 100 1009.4
20260903071440 13 225 6.4 11.3 0.00 1.65 0.00 100 1009.4
20260903071010 13 186 8.0 12.9 0.03 1.65 0.00 100 1009.1
20260903070439 13 209 6.4 12.9 0.03 1.65 0.00 100 1009.1
20260903070010 13 205 11.3 11.3 0.03 1.65 0.00 100 1009.1
20260903065509 13 202 9.7 11.3 0.03 1.65 1.65 100 1009.1
20260903063940 13 194 8.0 9.7 0.03 1.65 1.65 100 1009.3
20260903063439 13 220 6.4 9.7 0.03 1.65 1.65 100 1009.3
20260903063009 13 220 4.8 9.7 0.03 1.65 1.65 100 1009.3
20260903062439 13 224 4.8 9.7 0.03 1.65 1.65 100 1009.3
20260903062009 13 216 4.8 9.7 0.03 1.65 1.65 100 1009.3
20260903061509 13 229 3.2 9.7 0.03 1.65 1.65 100 1009.3
20260903060939 13 181 3.2 9.7 0.00 1.63 1.63 99 1009.3
20260903055009 13 202 0.0 4.8 0.08 1.63 1.63 96 1009.3
20260903054509 13 212 1.6 6.4 0.08 1.63 1.63 96 1009.3
20260903054009 13 212 3.2 6.4 0.10 1.63 1.63 96 1009.5
20260903053509 13 213 0.0 4.8 0.13 1.63 1.63 96 1009.5
20260903052508 13 212 0.0 3.2 0.15 1.63 1.63 95 1009.4
20260903051509 13 211 0.0 6.4 0.15 1.63 1.63 95 1009.4
20260903051009 13 211 4.8 8.0 0.15 1.63 1.63 94 1009.3
20260903050438 13 206 6.4 12.9 0.13 1.60 1.60 94 1009.3
20260903050009 13 213 6.4 12.9 0.13 1.60 1.60 94 1009.3
20260903045509 13 196 4.8 11.3 0.10 1.57 1.57 94 1009.3
20260903045008 13 206 6.4 9.7 0.08 1.55 1.55 93 1009.3
20260903044008 13 205 9.7 11.3 0.05 1.52 1.52 92 1009.1
20260903043508 13 204 6.4 11.3 0.03 1.50 1.50 92 1009.1
20260903042508 13 215 9.7 9.7 0.00 1.47 1.47 92 1008.9
20260903042008 13 190 4.8 9.7 0.00 1.47 1.47 92 1008.9
20260903041438 13 215 9.7 9.7 0.00 1.47 1.47 92 1008.9
20260903040508 13 185 3.2 11.3 0.00 1.47 1.47 92 1008.7
20260903035508 13 205 8.0 8.0 0.00 1.47 1.47 92 1008.7
20260903035008 13 215 0.0 6.4 0.00 1.47 1.47 92 1008.7
20260903034508 13 182 4.8 6.4 0.00 1.47 1.47 92 1008.7
20260903033938 13 209 0.0 4.8 0.00 1.47 1.47 92 1008.4
20260903033508 13 205 0.0 4.8 0.00 1.47 1.47 92 1008.4
20260903033009 13 194 0.0 4.8 0.00 1.47 1.47 92 1008.4
20260903032509 13 218 1.6 4.8 0.00 1.47 1.47 91 1008.3
20260903032008 13 213 3.2 4.8 0.00 1.47 1.47 91 1008.3
20260903031509 14 233 0.0 4.8 0.00 1.47 1.47 90 1008.3
20260903031008 14 225 0.0 3.2 0.00 1.47 1.47 90 1008.3
20260903030009 14 225 0.0 0.0 0.00 1.47 1.47 90 1008.3
20260903025008 14 225 0.0 0.0 0.00 1.47 1.47 88 1008.1
20260903024508 14 225 0.0 0.0 0.00 1.47 1.47 87 1008.1